Regional Weather Roundup
Issued by NWS

Home | Current Version | Previous Version | Text Only | Print | Product List | Glossary On
Versions: 1 2 3 4 5 6 7 8 9 10 11 12 13 14 15 16 17 18 19 20 21 22 23 24 25 26 27 28 29 30 31 32 33 34 35 36 37 38 39 40 41 42 43 44 45 46 47 48 49 50
000
ASUS43 KDTX 212101
RWRMI
MICHIGAN HOURLY REGIONAL WEATHER ROUNDUP
NATIONAL WEATHER SERVICE DETROIT/PONTIAC MI
500 PM EDT THU AUG 21 2014

NOTE: "FAIR" INDICATES FEW OR NO CLOUDS BELOW 12,000 FEET WITH NO
SIGNIFICANT WEATHER AND/OR OBSTRUCTION TO VISIBILITY.

MIZ047>049-052>055-059>063-066>070-074>076-081>083-212200-
SOUTHEAST LOWER MICHIGAN

CITY           SKY/WX    TMP DP  RH WIND       PRES   REMARKS
ADRIAN         PTSUNNY   80  69  69 SW9       29.98S
ALMA           CLOUDY    75  67  76 CALM      29.99S
ANN ARBOR      PTSUNNY   80  68  66 W8        29.96F
BAD AXE        CLOUDY    71  66  84 NE7       29.99S
CARO           CLOUDY    76  66  71 W6        29.98R
DETROIT CITY   CLOUDY    82  69  64 S6        29.96S
DETROIT        LGT RAIN  78  71  79 E3        29.96F
FLINT          CLOUDY    81  66  60 SW3       29.97F
GROSSE ILE     PTSUNNY   77  72  83 S7        29.95F
HILLSDALE      CLOUDY    79  71  75 W8        30.01R
HOWELL         CLOUDY    78  69  73 W5        29.98S

CITY           SKY/WX    TMP DP  RH WIND       PRES   REMARKS
JACKSON        CLOUDY    80  69  69 W8        29.97F
LAMBERTVILLE   PTSUNNY   79  70  73 SW8       29.98S
LANSING        CLOUDY    78  68  71 N6        29.98S
LAPEER         MOCLDY    77  65  67 W5        29.98S
MASON          CLOUDY    78  69  73 CALM      29.97F
MONROE         PTSUNNY   81  70  69 SW7       29.95S
MT. CLEMENS    PTSUNNY   78  65  65 SW5       29.95F
PONTIAC        PTSUNNY   79  66  64 S5        29.97S
PORT HOPE        N/A     67  63  87 E7        29.98F
PORT HURON     PTSUNNY   77  66  69 CALM      29.97S
TRI CITIES     CLOUDY    77  64  64 CALM      29.98F
TROY           PTSUNNY   81  68  63 SE3       29.98F
SAGINAW HB     CLOUDY    79  61  53 CALM      29.97F
$$
MIZ043>046-050>051-056>058-064>065-071>073-077>080-212200-
SOUTHWEST LOWER MICHIGAN

CITY           SKY/WX    TMP DP  RH WIND       PRES   REMARKS
BATTLE CREEK   CLOUDY    78  71  79 SW9       29.98S
BENTON HARBOR  CLOUDY    76  72  87 CALM      29.96F
BIG RAPIDS     CLOUDY    73  67  81 SW5       29.98S
COLDWATER      CLOUDY    78  71  79 SW6       29.99F
FREMONT        RAIN      72  69  89 CALM      29.95F
HOLLAND        CLOUDY    76  71  85 CALM      29.96F
GRAND RAPIDS   CLOUDY    77  73  87 N7        29.97F
IONIA          MOCLDY    75  68  78 CALM      29.97F
KALAMAZOO      CLOUDY    76  72  87 S6        29.96F FOG
LUDINGTON      LGT RAIN  72  70  93 CALM      29.95F
MARSHALL       CLOUDY    76  70  80 SW6       29.98R
MOUNT PLEASANT CLOUDY    75  63  65 S3        29.98S
MUSKEGON       LGT RAIN  74  69  85 E3        29.94F
SOUTH HAVEN    CLOUDY    74  71  91 SW6       29.98R
$$
MIZ016>042-212200-
NORTHERN LOWER MICHIGAN

CITY           SKY/WX    TMP DP  RH WIND       PRES   REMARKS
ALPENA         CLOUDY    68  64  87 E8        29.99S
BEAVER ISLAND  PTSUNNY   72  63  72 CALM      29.99S
BELLAIRE       PTSUNNY   74  62  66 CALM      29.97S
CADILLAC       CLOUDY    74  64  70 CALM      29.99S
CHARLEVOIX     MOSUNNY   71  63  76 N7        30.01S
FRANKFORT      CLOUDY    74  64  69 CALM      29.95F
GAYLORD        CLOUDY    72  60  66 SW3       30.00S
GRAYLING       CLOUDY    75  61  62 CALM      30.00S
HARBOR SPRINGS PTSUNNY   74  63  66 SW6       29.98S
HOUGHTON LAKE  CLOUDY    79  60  52 VRB3      29.99S
MANISTEE       CLOUDY    73  64  73 E3        29.96F
OSCODA         CLOUDY    71  64  78 E3        29.98S
PELLSTON       CLOUDY    74  64  71 W5        29.98F
ROGERS CITY    SUNNY     67  64  90 N3        30.00S
TRAVERSE CITY  PTSUNNY   76  58  53 N8        29.96F
$$
MIZ007>008-015-212200-
EASTERN UPPER MICHIGAN

CITY           SKY/WX    TMP DP  RH WIND       PRES   REMARKS
KINROSS        CLOUDY    73  64  73 CALM      29.97F
MACKINAC ISLAN MOSUNNY   71  64  78 CALM      29.98S
NEWBERRY       CLOUDY    71  63  75 SW7       29.98R
S. S. MARIE    CLOUDY    72  63  73 W6        29.96F
$$
MIZ004>006-011>014-085-212200-
CENTRAL UPPER MICHIGAN

CITY           SKY/WX    TMP DP  RH WIND       PRES   REMARKS
MANISTIQUE     CLOUDY    70  63  80 S6        29.98S
ESCANABA       PTSUNNY   70  61  73 SE8       29.97F
MENOMINEE      CLOUDY    68  63  83 E7        29.94S
SAWYER-GWINN   CLOUDY    72  63  73 S7        29.97S
$$
MIZ001>003-009>011-084-212200-
WESTERN UPPER MICHIGAN

CITY           SKY/WX    TMP DP  RH WIND       PRES   REMARKS
IRON MOUNTAIN  CLOUDY    69  63  81 SE7       29.95S
HOUGHTON       MOSUNNY   65  59  81 E10       29.95S
COPPER HARBOR    N/A     63  57  81 CALM      29.96S
IRONWOOD       CLOUDY    73  66  78 SE7       29.87F
$$

ABBREVIATIONS USED IN REMARKS
   TC - TEMPERATURE IN CELSIUS
  WCI - WIND CHILL INDEX
   HX - HEAT INDEX
  VSB - VISIBILITY




USA.gov is the U.S. government's official web portal to all federal, state and local government web resources and services.